STARLINK-5762, 55590

Orbit data source: Space-Track

STARLINK-5762, 55590 is a payload satellite owned by SpaceX/Seattle (US) in LEO that was launched on Sun, 12 Feb 2023 UTC via an FALCON 9 launch vehicle from the Air Force Eastern Test Range (AFETR). Payload-class satellites include a variety of spacecraft equipped with specific instruments for various scientific and technological missions. These include communications satellites like Starlink; space stations such as the ISS; scientific satellites like the Hubble; Earth observation satellites from companies like Planet Labs, Umbra, and HawkEye 360; GPS; miniature CubeSats for education and research; and military/defense satellites.

Loading next visibility...
Identifier
55590, 2023-020X
Orbit
LEO
Country
Flag of USUS
Related business
Manufacturer
SpaceX/Seattle
Mission
Operational Commercial Communications
Bus & Motor
STARLINK, Unknown motor
Mass
305 kg wet, ~290 kg dry
Launch date (UTC)
2023-02-12 (3 years ago)
Launch vehicle
FALCON 9
Launch site
Air Force Eastern Test Range (AFETR)
Object type
Payload
Rocket body
Debris
Shape & HBR
Box + 1 Pan, 10.1 m
Radar Cross Section
13.562 m², Large (>1 m²)

Expand to show TLE details & history
Last TLE update: 10 hours ago

TLE from 10 hours ago
0 STARLINK-5762
1 55590U 23020X   25340.82720165  .00000143  00000-0  25656-4 0  9992
2 55590  43.0008 148.9477 0001225 267.2430  92.8272 15.02533122154953
Epoch: 2025-12-06T19:51Z
TLE epoch observation values (Epoch: 2025-12-06T19:51:10.222Z)
Latitude
-0.00003°
Longitude
135.30572°
Altitude
558.908 km
Speed
7.584 km/s
True Right ascension
09h 55m 47s
True Declination
0° 00' 00"
Sunlit
Object was in daylight at epoch
Visualization orbit readout
Latitude
Unknown
Longitude
Unknown
Altitude
Unknown
Speed
Unknown
Apparent Right ascension
Unknown
Apparent Declination
Unknown
Sunlit
N/A
Visualization observer readout
Local Sidereal Time
04:19:03
Azimuth
Unknown
Elevation
Unknown
Doppler factor
Unknown
Orbital elements
Apogee altitude
561.862 km
Perigee altitude
560.162 km
Semi-major axis
6,939.149 km
Eccentricity
0.00012
Inclination
43.0008°
RAAN
148.9477°
Arg. of periapsis
267.243°
True anomaly
92.84122°
Mean anomaly
92.8272°
Eccentric anomaly
92.83421°
Mean motion
3.75477 °/min
Orbital period
95.88 mins
BSTAR
0.000025656
Loading maneuver chart data...
Computing Atmospheric mass density...
Loading historical data...
Loading historical data...
Loading historical data...
Loading historical data...
Loading historical data...
Loading historical data...
Loading historical data...

Documentation

Showing up to 5 results
|